[[{"header":{"parameterUnit":"m.s-1","parameterCategory":1,"la1":30.2991,"la2":30.254,"lo1":-89.0895,"lo2":-89.0444,"dy":0.0017,"dx":0.0017,"nx":28,"ny":28,"refTime":"2024-07-24T21:00:00:Z","depth":0,"parameterNumber":2,"parameterNumberName":"U-component_of_WINDS"},"data":[0,0,0,0,0,0,0,0,0,0,0,0,0,0,0,0,0,0,0,0,0,0,0,0,0,0,0,0,0,0,0,0,0,0,0,0,0,0,0,0,0,0,0,0,0,0,0,0,0,0,0,0,0,0,0,0,0,0,1.9059,1.906,0,1.9143,1.9144,1.9145,1.9166,1.9165,1.9165,1.9164,1.9253,1.9256,1.9259,0,0,0,0,0,0,0,0,0,0,0,0,0,1.8918,1.892,1.9059,1.906,1.9061,1.9143,1.9144,1.9146,1.9166,1.9165,1.9164,1.9164,1.9252,1.9256,1.9259,0,0,0,0,0,0,0,0,0,0,0,0,0,1.8988,1.8921,1.9059,1.9081,1.9084,1.9143,1.9145,1.9146,1.9166,1.9165,1.9164,1.9163,1.9251,1.9255,1.926,1.9303,0,0,1.9273,1.9275,0,0,0,0,0,0,0,0,1.8984,1.8994,1.9077,1.908,1.9083,1.9143,1.9127,1.9199,1.9166,1.9135,1.9164,1.9163,1.9217,1.9224,1.9242,1.9308,1.9311,1.9273,1.9276,1.9278,1.9279,0,0,0,0,0,0,0,1.898,1.899,1.9093,1.9078,1.9082,1.9088,1.9097,1.9141,1.918,1.9138,1.9139,1.9149,1.9219,1.9238,1.9244,1.9313,1.9273,1.9277,1.928,1.9281,1.9418,1.9419,0,0,0,0,0,0,1.897,1.8986,1.909,1.9095,1.9031,1.9091,1.9101,1.9125,1.918,1.9187,1.9149,1.9149,1.9231,1.9239,1.9248,1.9302,1.9278,1.9282,1.9284,1.9417,1.9418,1.9419,0,0,0,0,0,0,1.8967,1.898,1.9087,1.9041,1.9055,1.9094,1.9121,1.9127,1.9146,1.9188,1.9196,1.9162,1.9231,1.9242,1.9289,1.9306,1.9284,1.9288,1.9415,1.9417,1.9418,1.9412,0,0,0,0,0,0,1.8963,1.8978,1.8995,1.9041,1.9057,1.9126,1.9122,1.9129,1.9153,1.9154,1.9202,1.9209,1.9231,1.9282,1.9293,1.9311,1.9291,1.9414,1.9416,1.9418,1.9411,1.9413,1.9415,0,0,0,0,0,1.8958,1.8991,1.8996,1.9008,1.9079,1.9127,1.9136,1.916,1.9154,1.9172,1.9199,1.9207,1.9302,1.9287,1.93,1.9319,1.9413,1.9415,1.9418,1.941,1.9412,1.9415,0,0,0,0,0,0,1.8947,1.8997,1.9003,1.9052,1.9085,1.913,1.9153,1.9162,1.9198,1.9198,1.9226,1.9237,1.9282,1.9306,1.9288,1.9364,1.9357,1.9362,1.9347,1.935,1.9352,1.9346,1.9295,0,0,0,0,0,1.8949,1.8983,1.9026,1.9065,1.9081,1.9114,1.9136,1.9151,1.9186,1.9201,1.9232,1.9267,1.9304,1.9328,1.9365,1.9414,1.9425,1.9433,1.9435,1.9437,1.9441,1.9468,1.9472,1.9426,1.9426,1.9426,0,0,1.8956,1.8988,1.9008,1.9063,1.909,1.9125,1.9125,1.9163,1.9189,1.9207,1.9253,1.9277,1.9318,1.9366,1.9388,1.9386,1.9456,1.944,1.944,1.9444,1.9471,1.9475,1.9479,1.9428,1.9428,1.9427,0,0,1.8987,1.9014,1.9049,1.9076,1.9116,1.9138,1.9146,1.919,1.9206,1.9253,1.9266,1.9299,1.9363,1.9391,1.9414,1.9453,1.9463,1.9464,1.9475,1.9501,1.9505,1.9508,1.9522,1.9527,1.9468,1.9468,1.9468,0,1.899,1.9043,1.9066,1.9102,1.9126,1.9142,1.9177,1.9203,1.9254,1.927,1.9267,1.9347,1.9376,1.943,1.9439,1.9458,1.9468,1.946,1.9502,1.9506,1.9509,1.9523,1.9528,1.9468,1.9468,1.9468,1.9468,0,1.9045,1.9081,1.9104,1.9152,1.9178,1.9214,1.9243,1.9267,1.9279,1.9301,1.9348,1.9383,1.9427,1.9441,1.9454,1.9497,1.9495,1.9496,1.9491,1.9513,1.9526,1.9532,1.9468,1.9468,1.9468,1.9468,0,0,1.9072,1.913,1.9138,1.916,1.9205,1.9234,1.927,1.9312,1.9332,1.9367,1.9398,1.9451,1.9452,1.9478,1.9495,1.9517,1.9546,1.9516,1.9518,1.952,1.9595,1.9593,1.9599,1.9552,1.9553,1.9554,1.9591,0,1.9107,1.9172,1.9193,1.9247,1.9281,1.9296,1.9327,1.9359,1.938,1.9412,1.9436,1.9473,1.9472,1.9488,1.9511,1.9537,1.9561,1.9535,1.9582,1.9583,1.9571,1.9606,1.9605,1.9639,1.9597,1.9598,1.9598,0,1.9158,1.9192,1.9249,1.9289,1.9304,1.9332,1.9372,1.9402,1.9438,1.9452,1.9479,1.9494,1.9533,1.9524,1.9578,1.9559,1.9579,1.9595,1.9597,1.9603,1.9592,1.9613,1.965,1.9655,1.9607,1.9606,1.9605,0,1.9172,1.9232,1.9273,1.9291,1.9339,1.9358,1.938,1.9415,1.9438,1.9473,1.9488,1.9527,1.9549,1.9579,1.9603,1.9594,1.9655,1.9648,1.9667,1.9667,1.968,1.9679,1.9722,1.9693,1.9693,1.9692,1.9692,0,1.921,1.9244,1.928,1.9305,1.9344,1.9368,1.9406,1.9428,1.9459,1.9489,1.9505,1.9533,1.9563,1.9596,1.9615,1.9657,1.9666,1.9679,1.9684,1.9678,1.9676,1.9692,1.969,1.9694,1.9693,1.9693,1.9693,0,1.9232,1.9257,1.9303,1.9344,1.9356,1.9382,1.9418,1.9443,1.9464,1.9503,1.9513,1.9547,1.9586,1.9613,1.9663,1.9676,1.972,1.9725,1.9708,1.971,1.9728,1.9726,1.9783,1.9791,1.9756,1.9757,1.9757,0,1.9255,1.9281,1.9325,1.9346,1.9366,1.94,1.9423,1.9448,1.9472,1.9514,1.9534,1.9574,1.9607,1.9668,1.9697,1.9736,1.9741,1.9758,1.9747,1.974,1.9742,1.974,1.9742,1.976,1.9761,1.9761,1.9761,0,1.9293,1.9303,1.9336,1.9373,1.94,1.9431,1.9461,1.9478,1.9507,1.9533,1.9573,1.9598,1.9648,1.9687,1.9728,1.975,1.9761,1.9764,1.977,1.9765,1.9754,1.976,1.9713,1.9763,1.9763,1.9762,1.9762,1.9762,1.9316,1.934,1.9374,1.9409,1.9435,1.9463,1.9488,1.9512,1.9545,1.9587,1.9599,1.964,1.9674,1.973,1.9753,1.9785,1.9784,1.9794,1.9796,1.9798,1.9798,1.9748,1.9793,1.9793,1.9793,1.9793,1.9793,0,1.9355,1.9377,1.9409,1.9451,1.9479,1.9484,1.9518,1.9542,1.9577,1.9608,1.9639,1.9684,1.9721,1.9753,1.9792,1.9811,1.9817,1.9821,1.982,1.9825,1.9797,1.9787,1.9816,1.9816,1.9816,1.9816,1.9816,1.9816,1.9378,1.9418,1.9433,1.9486,1.9508,1.9547,1.9566,1.9592,1.9616,1.9665,1.9696,1.9715,1.9747,1.9788,1.9822,1.9831,1.9844,1.9847,1.9856,1.983,1.9827,1.9824,1.9815,1.985,1.985,1.9882,1.9882,1.9882]},{"header":{"parameterUnit":"m.s-1","parameterCategory":1,"la1":30.2991,"la2":30.254,"lo1":-89.0895,"lo2":-89.0444,"dy":0.0017,"dx":0.0017,"nx":28,"ny":28,"refTime":"2024-07-24T21:00:00:Z","depth":0,"parameterNumber":3,"parameterNumberName":"V-component_of_WINDS"},"data":[0,0,0,0,0,0,0,0,0,0,0,0,0,0,0,0,0,0,0,0,0,0,0,0,0,0,0,0,0,0,0,0,0,0,0,0,0,0,0,0,0,0,0,0,0,0,0,0,0,0,0,0,0,0,0,0,0,0,2.1648,2.1648,0,2.1614,2.1614,2.1613,2.1638,2.1639,2.164,2.1641,2.1601,2.1599,2.1597,0,0,0,0,0,0,0,0,0,0,0,0,0,2.1728,2.1727,2.1648,2.1648,2.1647,2.1614,2.1614,2.1613,2.1638,2.1639,2.164,2.1642,2.1602,2.1599,2.1597,0,0,0,0,0,0,0,0,0,0,0,0,0,2.1694,2.1726,2.1648,2.1656,2.1656,2.1614,2.1614,2.1613,2.1637,2.1639,2.1641,2.1642,2.1602,2.1599,2.1596,2.1544,0,0,2.1587,2.1585,0,0,0,0,0,0,0,0,2.1695,2.1691,2.1655,2.1655,2.1655,2.1632,2.1627,2.159,2.1637,2.1644,2.1641,2.1643,2.161,2.1606,2.1596,2.1542,2.154,2.1586,2.1584,2.1583,2.1582,0,0,0,0,0,0,0,2.1698,2.1692,2.1635,2.1654,2.1655,2.1659,2.1656,2.162,2.1618,2.1644,2.1646,2.1641,2.161,2.1599,2.1595,2.154,2.1586,2.1584,2.1582,2.1581,2.1437,2.1435,0,0,0,0,0,0,2.17,2.1694,2.1636,2.1634,2.168,2.1656,2.1652,2.1638,2.1618,2.1617,2.164,2.1643,2.1603,2.1599,2.1594,2.1528,2.1583,2.158,2.1578,2.1439,2.1436,2.1434,0,0,0,0,0,0,2.1702,2.1695,2.1637,2.1664,2.1657,2.1653,2.1636,2.1636,2.1625,2.1616,2.1615,2.1629,2.1604,2.1598,2.1555,2.1527,2.1579,2.1576,2.1441,2.1438,2.1435,2.1398,0,0,0,0,0,0,2.1704,2.1695,2.1677,2.1664,2.1656,2.1601,2.1635,2.1634,2.162,2.1623,2.1605,2.1604,2.1605,2.156,2.1552,2.1524,2.1573,2.1443,2.144,2.1436,2.1402,2.1394,2.1388,0,0,0,0,0,2.1707,2.1667,2.1676,2.1669,2.1633,2.16,2.1595,2.1599,2.1618,2.1598,2.1592,2.1605,2.1532,2.1556,2.1547,2.1517,2.1445,2.1441,2.1436,2.1405,2.1396,2.1388,0,0,0,0,0,0,2.1676,2.1666,2.1675,2.1631,2.1616,2.1604,2.1579,2.1589,2.1568,2.1571,2.1575,2.1571,2.1526,2.1517,2.1544,2.1463,2.1491,2.1485,2.147,2.1461,2.1455,2.1456,2.1571,0,0,0,0,0,2.1665,2.164,2.1632,2.1593,2.1586,2.1584,2.1569,2.1574,2.1558,2.1551,2.1542,2.1524,2.1497,2.1479,2.1454,2.1401,2.1396,2.1376,2.1369,2.1364,2.1357,2.1325,2.1315,2.142,2.142,2.142,0,0,2.1639,2.1631,2.1615,2.1587,2.1576,2.1548,2.1578,2.1548,2.1527,2.1546,2.1505,2.1497,2.1478,2.1429,2.1407,2.142,2.1327,2.1358,2.1354,2.135,2.132,2.131,2.1301,2.1417,2.1418,2.1418,0,0,2.1579,2.1572,2.1537,2.1526,2.1509,2.1508,2.15,2.1486,2.1482,2.1441,2.1454,2.1427,2.1382,2.1366,2.1353,2.1285,2.1294,2.1276,2.1239,2.1208,2.1199,2.1192,2.1164,2.1155,2.1271,2.1271,2.127,0,2.155,2.151,2.1518,2.1486,2.1472,2.149,2.1453,2.1441,2.1416,2.1405,2.1421,2.1362,2.1351,2.1297,2.128,2.127,2.1257,2.1277,2.12,2.1193,2.1186,2.116,2.115,2.1268,2.1268,2.1269,2.1269,0,2.1473,2.1446,2.1419,2.1396,2.1379,2.1345,2.1345,2.1327,2.1332,2.1328,2.1284,2.1271,2.1242,2.123,2.1235,2.1176,2.1184,2.12,2.1228,2.1174,2.1149,2.1139,2.1265,2.1266,2.1266,2.1267,0,0,2.1392,2.1373,2.1363,2.1351,2.1333,2.1311,2.1277,2.125,2.1232,2.1214,2.1183,2.1144,2.1158,2.1142,2.1145,2.1118,2.106,2.1137,2.1136,2.112,2.099,2.0976,2.0965,2.1068,2.1066,2.1065,2.0991,0,2.1328,2.127,2.1275,2.1219,2.1191,2.1207,2.1177,2.1161,2.1156,2.113,2.1124,2.1095,2.1118,2.1108,2.1082,2.1073,2.1034,2.1079,2.1036,2.1034,2.1037,2.0952,2.0938,2.0869,2.0982,2.098,2.0979,0,2.1246,2.1226,2.1168,2.1152,2.1141,2.1113,2.1087,2.1064,2.1045,2.1043,2.1025,2.1032,2.0994,2.1025,2.0971,2.1001,2.0984,2.0976,2.0974,2.0967,2.1001,2.0941,2.0847,2.0836,2.0964,2.0965,2.0966,0,2.1189,2.1147,2.1106,2.1096,2.1078,2.1057,2.1048,2.1032,2.1014,2.0991,2.0979,2.0952,2.0936,2.0913,2.0911,2.0934,2.0855,2.0886,2.0849,2.0849,2.083,2.0831,2.0729,2.0824,2.0824,2.0824,2.0824,0,2.1116,2.1078,2.108,2.1054,2.1011,2.1017,2.0974,2.0966,2.0951,2.0922,2.0934,2.0906,2.0907,2.0878,2.0876,2.0829,2.0823,2.0818,2.0817,2.0815,2.0815,2.0801,2.0805,2.0821,2.0822,2.0822,2.0823,0,2.1043,2.1043,2.0999,2.0985,2.0981,2.0949,2.0936,2.091,2.0907,2.087,2.0861,2.0854,2.082,2.0817,2.0777,2.0775,2.0718,2.0724,2.0724,2.0724,2.0686,2.0688,2.057,2.0553,2.0662,2.0661,2.066,0,2.0995,2.0967,2.095,2.0932,2.0922,2.0894,2.0876,2.0879,2.086,2.0836,2.0811,2.0779,2.0753,2.0697,2.0687,2.0655,2.0659,2.062,2.0654,2.0652,2.0654,2.0654,2.065,2.0612,2.0611,2.061,2.0609,0,2.0909,2.091,2.0885,2.0859,2.0838,2.0817,2.0798,2.0782,2.0783,2.076,2.0726,2.0706,2.0665,2.0631,2.06,2.0588,2.0596,2.0599,2.0588,2.0584,2.0584,2.0579,2.0703,2.0601,2.0601,2.0602,2.0602,2.0603,2.0845,2.0819,2.0803,2.0774,2.076,2.0741,2.0715,2.0709,2.0681,2.0649,2.0652,2.0613,2.0593,2.0552,2.0538,2.0506,2.0518,2.0503,2.0499,2.0494,2.0489,2.0591,2.05,2.05,2.0501,2.0501,2.0501,0,2.0756,2.0746,2.072,2.0693,2.0669,2.0682,2.0661,2.0639,2.0606,2.0587,2.0561,2.052,2.0487,2.0474,2.0441,2.0417,2.042,2.0408,2.0408,2.0404,2.0481,2.0492,2.0406,2.0406,2.0406,2.0406,2.0406,2.0406,2.0707,2.0663,2.0662,2.061,2.06,2.0564,2.055,2.0532,2.0516,2.0471,2.0443,2.0436,2.0418,2.0383,2.0352,2.0349,2.0334,2.032,2.0318,2.0389,2.0399,2.0408,2.0418,2.0317,2.0317,2.0243,2.0242,2.0241]}]]